STARLINK-35887 (66959 NORAD) Tracking and Keplerian Element Data

This shows tracking and keplerian element data for the satellite.

Feedback or suggestion? Click here.




ElementValue
Catalog66959
NameSTARLINK-35887
Epoch Orbit303
Epoch Day354.25003472
Epoch Year2025
RAAN121.1834
Inclination43.001
Eccentricity0.0001675
Argument of Perigee271.2794
Mean Anonmoly86.2309
Mean Motion15.81364373
Decay Rate-0.01268419
L11 66959U 25288A 25354.25003472 -.01268419 00000+0 -70338-2 0 9997
L22 66959 43.0010 121.1834 0001675 271.2794 86.2309 15.81364373 3031



Live tracking and technical data element details for STARLINK-35887 (NORAD 66959). STARLINK-35887 can be tracked NOW for your location showing map with azimuth and elevation plus other details from your city location.







IsCatalogInMostPopularTable: catalog: 66959, numindb: 17
Update: records affected: 1



GetName: 66959 STARLINK-35887

Hit Count: updated at: Mon, 20 Apr 2026 10:08:41 GMT